EA3BIN-13 Weather Reports


time (UTC)temp
C
wind
direction
speed
KPH
gust
KPH
rain 1hr
cm
rain 24hr
cm
rain mn
cm
humidity
%
barometer
mb
20260504191919 15 0.0 0.0 0.00 0.00 0.00 10 1012.2
20260504190919 16 0.0 0.0 0.00 0.00 0.00 10 1011.8
20260504185919 15 0.0 0.0 0.00 0.00 0.00 10 1011.7
20260504184919 16 0.0 0.0 0.00 0.00 0.00 10 1011.6
20260504183919 16 0.0 0.0 0.00 0.00 0.00 10 1011.4
20260504182919 16 0.0 0.0 0.00 0.00 0.00 10 1011.3
20260504181924 16 0.0 0.0 0.00 0.00 0.00 10 1011.1
20260504180919 16 0.0 0.0 0.00 0.00 0.00 10 1010.7
20260504175919 17 0.0 0.0 0.00 0.00 0.00 10 1010.4
20260504174924 17 0.0 0.0 0.00 0.00 0.00 10 1010.3
20260504173919 17 0.0 0.0 0.00 0.00 0.00 10 1010.5
20260504172919 17 0.0 0.0 0.00 0.00 0.00 10 1010.7
20260504171919 17 0.0 0.0 0.00 0.00 0.00 10 1010.8
20260504170919 17 0.0 0.0 0.00 0.00 0.00 10 1010.7
20260504150919 20 0.0 0.0 0.00 0.00 0.00 10 1010.8
20260504140919 18 0.0 0.0 0.00 0.00 0.00 10 1011.6
20260504081920 19 0.0 0.0 0.00 0.00 0.00 94 1012.5
20260504080919 19 0.0 0.0 0.00 0.00 0.00 97 1012.6
20260504045920 12 0.0 0.0 0.00 0.00 0.00 10 1014.3
20260504044919 12 0.0 0.0 0.00 0.00 0.00 10 1014.2
20260504043919 12 0.0 0.0 0.00 0.00 0.00 10 1014.3
20260504042920 12 0.0 0.0 0.00 0.00 0.00 10 1014.3
20260504041920 12 0.0 0.0 0.00 0.00 0.00 10 1014.4
20260504040920 12 0.0 0.0 0.00 0.00 0.00 10 1014.3
20260504035920 12 0.0 0.0 0.00 0.00 0.00 10 1014.3
20260504034925 12 0.0 0.0 0.00 0.00 0.00 10 1014.2
20260504033919 12 0.0 0.0 0.00 0.00 0.00 10 1014.3
20260504032920 12 0.0 0.0 0.00 0.00 0.00 10 1014.2
20260504031919 13 0.0 0.0 0.00 0.00 0.00 10 1014.2
20260504030925 13 0.0 0.0 0.00 0.00 0.00 10 1014.2
20260504025919 13 0.0 0.0 0.00 0.00 0.00 10 1014.3
20260504024920 12 0.0 0.0 0.00 0.00 0.00 10 1014.3
20260504023919 13 0.0 0.0 0.00 0.00 0.00 10 1014.3
20260504022920 13 0.0 0.0 0.00 0.00 0.00 10 1014.2
20260504021920 13 0.0 0.0 0.00 0.00 0.00 10 1014.2
20260504020919 13 0.0 0.0 0.00 0.00 0.00 10 1014.2
20260504015919 13 0.0 0.0 0.00 0.00 0.00 10 1014.5
20260504014919 13 0.0 0.0 0.00 0.00 0.00 10 1014.6
20260504013930 13 0.0 0.0 0.00 0.00 0.00 10 1014.6
20260504012919 13 0.0 0.0 0.00 0.00 0.00 10 1014.6
20260504011919 13 0.0 0.0 0.00 0.00 0.00 10 1014.7
20260504010919 13 0.0 0.0 0.00 0.00 0.00 10 1014.8
20260504005919 13 0.0 0.0 0.00 0.00 0.00 10 1014.8
20260504004925 13 0.0 0.0 0.00 0.00 0.00 10 1014.9
20260504003920 13 0.0 0.0 0.00 0.00 0.00 10 1014.9
20260504002926 13 0.0 0.0 0.00 0.00 0.00 10 1015.0
20260504001920 13 0.0 0.0 0.00 0.00 0.00 10 1015.0
20260504000920 13 0.0 0.0 0.00 0.00 0.00 10 1015.2
20260503235920 13 0.0 0.0 0.00 0.00 0.00 10 1015.2
20260503234920 13 0.0 0.0 0.00 0.00 0.00 10 1015.0
20260503233919 13 0.0 0.0 0.00 0.00 0.00 10 1015.0
20260503232930 13 0.0 0.0 0.00 0.00 0.00 10 1015.1
20260503231920 13 0.0 0.0 0.00 0.00 0.00 10 1015.2
20260503230920 13 0.0 0.0 0.00 0.00 0.00 10 1015.2
20260503225920 13 0.0 0.0 0.00 0.00 0.00 10 1015.2
20260503224919 13 0.0 0.0 0.00 0.00 0.00 10 1015.2
20260503223919 13 0.0 0.0 0.00 0.00 0.00 10 1015.1
20260503222920 13 0.0 0.0 0.00 0.00 0.00 10 1015.2
20260503221925 13 0.0 0.0 0.00 0.00 0.00 10 1015.1
20260503220920 13 0.0 0.0 0.00 0.00 0.00 10 1015.2
20260503215925 14 0.0 0.0 0.00 0.00 0.00 10 1015.1
20260503214920 14 0.0 0.0 0.00 0.00 0.00 10 1014.9
20260503213920 14 0.0 0.0 0.00 0.00 0.00 10 1015.1
20260503212920 15 0.0 0.0 0.00 0.00 0.00 10 1014.9
20260503211919 15 0.0 0.0 0.00 0.00 0.00 10 1015.2
20260503210919 15 0.0 0.0 0.00 0.00 0.00 10 1015.1
20260503205919 15 0.0 0.0 0.00 0.00 0.00 10 1015.3
20260503204919 14 0.0 0.0 0.00 0.00 0.00 10 1015.2
20260503203920 15 0.0 0.0 0.00 0.00 0.00 10 1015.3
20260503202920 14 0.0 0.0 0.00 0.00 0.00 10 1015.3
20260503201925 14 0.0 0.0 0.00 0.00 0.00 10 1015.4
20260503200919 14 0.0 0.0 0.00 0.00 0.00 10 1015.4
20260503195920 14 0.0 0.0 0.00 0.00 0.00 10 1015.4
20260503194920 14 0.0 0.0 0.00 0.00 0.00 10 1015.3
20260503193920 14 0.0 0.0 0.00 0.00 0.00 10 1015.3
20260503192919 14 0.0 0.0 0.00 0.00 0.00 10 1015.2